Location: Newark
(30.1000°N, 109.4667°E)
Time: 20:57:06
(UTC+00:00)

Courier 1B Rocket - Pass Details

Date: 25 February 2020
Orbit: 920 x 1202 km, 28.2° (Epoch: 09 April)

Event Time Altitude Azimuth Distance (km) Brightness Sun altitude
Exits shadow 19:54:39 15° 126° (SE) 2,456 7.3 -43.2°
Drops below altitude 10° 19:55:45 10° 123° (ESE) 2,825 7.7 -43.0°
Sets 19:58:38 0° 118° (ESE) 3,823 8.6 -42.4°
